This is the latest recevied weather packets stored in our database for station/object F4GCF-13. If no packets are shown the sender has not sent any weather packets the latest 1 day(s).
| Time | Temp. | Humidity | Pressure | Rain* | Wind** | Luminosity | Snow |
|---|---|---|---|---|---|---|---|
| 1777996658 | 15.56° C | 61% | 1014 hPa | 0 mm | 2.68 m/s, 254° | - | - |
| 1777996394 | 15.56° C | 61% | 1014 hPa | 0 mm | 2.68 m/s, 257° | - | - |
| 1777996360 | 15.56° C | 61% | 1014 hPa | 0 mm | 2.68 m/s, 257° | - | - |
| 1777996057 | 16.11° C | 61% | 1014 hPa | 0 mm | 1.79 m/s, 256° | - | - |
| 1777995760 | 16.11° C | 60% | 1014 hPa | 0 mm | 2.68 m/s, 248° | - | - |
| 1777995458 | 16.11° C | 60% | 1014 hPa | 0 mm | 1.79 m/s, 286° | - | - |
| 1777995192 | 16.11° C | 60% | 1014 hPa | 0 mm | 3.58 m/s, 285° | - | - |
| 1777995157 | 16.11° C | 60% | 1014 hPa | 0 mm | 3.58 m/s, 285° | - | - |
| 1777994856 | 16.11° C | 60% | 1014 hPa | 0 mm | 2.24 m/s, 276° | - | - |
| 1777994558 | 16.11° C | 62% | 1014 hPa | 0 mm | 3.13 m/s, 262° | - | - |
| 1777993957 | 16.11° C | 64% | 1014 hPa | 0 mm | 3.13 m/s, 281° | - | - |
| 1777993358 | 16.11° C | 63% | 1013 hPa | 0 mm | 2.68 m/s, 248° | - | - |
| 1777992757 | 16.11° C | 63% | 1014 hPa | 0 mm | 3.13 m/s, 310° | - | - |
| 1777992458 | 16.11° C | 63% | 1014 hPa | 0 mm | 2.68 m/s, 248° | - | - |
| 1777992160 | 16.11° C | 63% | 1014 hPa | 0 mm | 2.68 m/s, 248° | - | - |
| 1777991858 | 16.11° C | 63% | 1015 hPa | 0 mm | 3.13 m/s, 248° | - | - |
| 1777991557 | 16.11° C | 64% | 1015 hPa | 0 mm | 3.58 m/s, 268° | - | - |
| 1777991259 | 16.11° C | 64% | 1015 hPa | 0 mm | 2.68 m/s, 297° | - | - |
| 1777990957 | 16.11° C | 65% | 1015 hPa | 0 mm | 1.79 m/s, 302° | - | - |
| 1777990358 | 16.11° C | 64% | 1015 hPa | 0 mm | 2.24 m/s, 278° | - | - |
| 1777990057 | 15.56° C | 63% | 1014 hPa | 0 mm | 2.24 m/s, 271° | - | - |
| 1777989159 | 16.11° C | 62% | 1014 hPa | 0 mm | 2.24 m/s, 244° | - | - |
| 1777988858 | 16.11° C | 61% | 1014 hPa | 0 mm | 1.79 m/s, 334° | - | - |
| 1777988558 | 16.11° C | 60% | 1014 hPa | 0 mm | 2.24 m/s, 331° | - | - |
| 1777988258 | 16.11° C | 59% | 1014 hPa | 0 mm | 3.13 m/s, 283° | - | - |
* Rain latest hour (hover to see other rain measurements)
** Current wind speed in m/s (hover to see current wind gust speed)